This demonstration page uses our WeatherBlox Daily Observations layout. Learn more.

Hourly Observations for November 16, 2016

Temp ( °F °C ) Dew Point ( °F °C ) Humidity (%) Winds ( mph kmh ) Pressure ( in mb ) Visibility ( mi km ) Precip ( " mm )
12:54 am 00:54 Clear 36 2.2 33 0.6 89 89 Calm 29.98 1015 10 16.0934 0 0
1:54 am 01:54 Clear 34 1.1 31 -0.6 89 89 N 3 6 29.98 1015 10 16.0934 0 0
2:54 am 02:54 Clear 34 1.1 31 -0.6 89 89 Calm 29.96 1015 10 16.0934 0 0
3:54 am 03:54 Clear 33 0.6 31 -0.6 92 92 Calm 29.93 1014 10 16.0934 0 0
4:54 am 04:54 Clear 31 -0.6 29 -1.7 92 92 Calm 29.92 1013 10 16.0934 0 0
5:54 am 05:54 Clear 30 -1.1 28 -2.2 92 92 NNE 6 9 29.91 1013 10 16.0934 0 0
6:54 am 06:54 Clear 33 0.6 30 -1.1 89 89 NNW 5 7 29.88 1012 10 16.0934 0 0
7:54 am 07:54 Sunny 34 1.1 31 -0.6 89 89 NNE 3 6 29.89 1012 10 16.0934 0 0
8:54 am 08:54 Sunny 46 7.8 38 3.3 73 73 Calm 29.85 1011 10 16.0934 0 0
9:54 am 09:54 Sunny 56 13.3 43 6.1 62 62 SSE 10 17 29.83 1010 10 16.0934 0 0
10:54 am 10:54 Sunny 64 17.8 43 6.1 46 46 SSE 10 17 29.78 1008 10 16.0934 0 0
11:54 am 11:54 Sunny 72 22.2 41 5 33 33 S 24 39 29.7 1006 10 16.0934 0 0
12:54 pm 12:54 Sunny 76 24.4 41 5 29 29 S 22 35 29.66 1004 10 16.0934 0 0
1:54 pm 13:54 Sunny 77 25 40 4.4 26 26 S 21 33 29.6 1003 10 16.0934 0 0
2:54 pm 14:54 Sunny 78 25.6 41 5 27 27 S 24 39 29.58 1002 10 16.0934 0 0
3:54 pm 15:54 Sunny 78 25.6 41 5 27 27 S 17 28 29.55 1001 10 16.0934 0 0
4:54 pm 16:54 Sunny 72 22.2 41 5 33 33 SSE 13 20 29.54 1001 10 16.0934 0 0
5:54 pm 17:54 Clear 66 18.9 42 5.6 42 42 SSE 12 19 29.56 1001 10 16.0934 0 0
6:54 pm 18:54 Clear 62 16.7 42 5.6 48 48 SSE 10 17 29.55 1001 10 16.0934 0 0
7:54 pm 19:54 Clear 63 17.2 43 6.1 48 48 SSE 9 15 29.55 1001 10 16.0934 0 0
8:54 pm 20:54 Clear 62 16.7 44 6.7 52 52 SSE 9 15 29.52 1000 10 16.0934 0 0
9:54 pm 21:54 Clear 61 16.1 45 7.2 56 56 S 12 19 29.5 999 10 16.0934 0 0
10:54 pm 22:54 Clear 59 15 45 7.2 60 60 S 7 11 29.49 999 10 16.0934 0 0
11:54 pm 23:54 Clear 60 15.6 43 6.1 53 53 SW 5 7 29.49 999 10 16.0934 0 0

Powered by AerisWeather